Location: Sangrey
(48.2845°N, 109.8206°W)
Time: 23:51:38
(UTC+00:00)

Envisat - Pass Details

Date: 28 January 2022
Orbit: 764 x 765 km, 98.2° (Epoch: 22 May)

Event Time Altitude Azimuth Distance (km) Brightness Sun altitude
Rises 00:59:49 0° 225° (SW) 3,220 7.5 -8.3°
Reaches altitude 10° 01:04:19 10° 263° (W) 2,302 7.1 -9.0°
Maximum altitude 01:05:26 11° 275° (W) 2,257 6.7 -9.2°
Drops below altitude 10° 01:06:34 10° 288° (WNW) 2,306 6.4 -9.4°
Sets 01:11:07 0° 327° (NNW) 3,240 6.5 -10.1°
